TimeEST,TemperatureF,Dew PointF,Humidity,Sea Level PressureIn,VisibilityMPH,Wind Direction,Wind SpeedMPH,Gust SpeedMPH,PrecipitationIn,Events,Conditions,WindDirDegrees,DateUTC
12:15 AM,24.6,20.3,84,30.06,5.0,Calm,Calm,-,N/A,,Overcast,0,2013-01-26 05:15:00
12:35 AM,24.6,20.1,83,30.05,5.0,South,3.5,-,N/A,,Overcast,190,2013-01-26 05:35:00
1:15 AM,23.9,19.8,84,30.05,5.0,Calm,Calm,-,N/A,,Scattered Clouds,0,2013-01-26 06:15:00
1:35 AM,23.0,18.3,82,30.05,4.0,Calm,Calm,-,N/A,,Haze,0,2013-01-26 06:35:00
1:55 AM,22.1,17.2,82,30.05,5.0,Calm,Calm,-,N/A,,Haze,0,2013-01-26 06:55:00
2:15 AM,21.9,16.7,80,30.05,5.0,Calm,Calm,-,N/A,,Haze,0,2013-01-26 07:15:00
2:35 AM,22.1,17.1,81,30.05,5.0,Calm,Calm,-,N/A,,Haze,0,2013-01-26 07:35:00
2:55 AM,22.1,17.4,82,30.05,5.0,Calm,Calm,-,N/A,,Haze,0,2013-01-26 07:55:00
3:15 AM,22.1,17.1,81,30.05,5.0,North,3.5,-,N/A,,Haze,10,2013-01-26 08:15:00
3:35 AM,22.1,17.4,82,30.05,5.0,Calm,Calm,-,N/A,,Haze,0,2013-01-26 08:35:00
3:55 AM,21.2,16.2,81,30.05,5.0,Calm,Calm,-,N/A,,Haze,0,2013-01-26 08:55:00
4:15 AM,21.0,15.8,80,30.04,4.0,Calm,Calm,-,N/A,,Haze,0,2013-01-26 09:15:00
4:35 AM,20.3,14.9,80,30.04,5.0,Calm,Calm,-,N/A,,Haze,0,2013-01-26 09:35:00
4:55 AM,20.3,15.3,81,30.05,5.0,North,3.5,-,N/A,,Haze,10,2013-01-26 09:55:00
5:15 AM,22.1,17.4,82,30.06,7.0,Calm,Calm,-,N/A,,Clear,0,2013-01-26 10:15:00
5:35 AM,22.5,18.0,83,30.06,5.0,Calm,Calm,-,N/A,,Clear,0,2013-01-26 10:35:00
5:55 AM,21.6,17.1,83,30.08,5.0,Calm,Calm,-,N/A,,Clear,0,2013-01-26 10:55:00
6:15 AM,21.0,16.3,82,30.08,5.0,NNE,5.8,-,N/A,,Haze,30,2013-01-26 11:15:00
6:35 AM,23.2,19.2,85,30.09,7.0,Calm,Calm,-,N/A,,Clear,0,2013-01-26 11:35:00
6:55 AM,23.9,19.4,83,30.10,7.0,NW,3.5,-,N/A,,Clear,320,2013-01-26 11:55:00
7:15 AM,25.3,21.4,85,30.10,10.0,NW,3.5,-,N/A,,Clear,310,2013-01-26 12:15:00
7:35 AM,25.3,21.0,84,30.12,10.0,Calm,Calm,-,N/A,,Clear,0,2013-01-26 12:35:00
7:55 AM,29.3,25.2,85,30.13,10.0,NNW,6.9,-,N/A,,Clear,330,2013-01-26 12:55:00
8:15 AM,30.9,26.1,82,30.14,10.0,North,5.8,-,N/A,,Clear,350,2013-01-26 13:15:00
8:35 AM,32.0,26.2,79,30.15,10.0,NNW,5.8,-,N/A,,Clear,340,2013-01-26 13:35:00
8:55 AM,33.1,26.6,77,30.15,10.0,NNW,4.6,-,N/A,,Clear,330,2013-01-26 13:55:00
9:15 AM,34.0,27.3,77,30.16,10.0,North,4.6,-,N/A,,Clear,360,2013-01-26 14:15:00
9:35 AM,34.7,28.9,79,30.17,10.0,North,5.8,-,N/A,,Clear,360,2013-01-26 14:35:00
9:55 AM,35.1,28.6,77,30.18,10.0,North,4.6,-,N/A,,Clear,360,2013-01-26 14:55:00
10:15 AM,35.6,28.8,76,30.19,10.0,North,3.5,-,N/A,,Clear,350,2013-01-26 15:15:00
10:35 AM,36.9,29.5,75,30.20,10.0,Calm,Calm,-,N/A,,Clear,0,2013-01-26 15:35:00
10:55 AM,37.6,28.0,68,30.20,10.0,NNW,3.5,-,N/A,,Clear,340,2013-01-26 15:55:00
11:15 AM,38.5,27.3,64,30.20,10.0,WNW,4.6,-,N/A,,Clear,300,2013-01-26 16:15:00
11:35 AM,38.7,27.7,65,30.20,10.0,Calm,Calm,-,N/A,,Clear,0,2013-01-26 16:35:00
11:55 AM,39.4,27.5,62,30.19,10.0,Calm,Calm,-,N/A,,Clear,0,2013-01-26 16:55:00
12:15 PM,39.6,27.7,62,30.18,10.0,Calm,Calm,-,N/A,,Clear,0,2013-01-26 17:15:00
12:35 PM,40.6,32.0,71,30.18,10.0,Calm,Calm,-,N/A,,Clear,0,2013-01-26 17:35:00
12:55 PM,40.3,31.5,71,30.17,10.0,Calm,Calm,-,N/A,,Clear,0,2013-01-26 17:55:00
1:15 PM,40.1,31.8,72,30.16,10.0,Calm,Calm,-,N/A,,Clear,0,2013-01-26 18:15:00
1:35 PM,40.1,30.2,68,30.16,10.0,Calm,Calm,-,N/A,,Clear,0,2013-01-26 18:35:00
1:55 PM,40.3,29.5,65,30.16,10.0,Calm,Calm,-,N/A,,Clear,0,2013-01-26 18:55:00
2:15 PM,40.8,29.7,64,30.16,10.0,Calm,Calm,-,N/A,,Clear,0,2013-01-26 19:15:00
2:35 PM,41.2,28.2,60,30.16,10.0,Calm,Calm,-,N/A,,Clear,0,2013-01-26 19:35:00
2:55 PM,41.4,29.7,63,30.15,10.0,West,3.5,-,N/A,,Clear,280,2013-01-26 19:55:00
3:15 PM,41.9,29.1,61,30.16,10.0,Calm,Calm,-,N/A,,Clear,0,2013-01-26 20:15:00
3:35 PM,41.9,27.3,56,30.17,10.0,Calm,Calm,-,N/A,,Clear,0,2013-01-26 20:35:00
3:55 PM,41.9,27.5,57,30.17,10.0,Calm,Calm,-,N/A,,Clear,0,2013-01-26 20:55:00
4:15 PM,41.9,27.0,55,30.19,10.0,WNW,4.6,-,N/A,,Clear,290,2013-01-26 21:15:00
4:35 PM,41.2,25.5,54,30.19,10.0,NW,4.6,-,N/A,,Clear,310,2013-01-26 21:35:00
4:55 PM,40.1,25.3,56,30.20,10.0,WNW,5.8,-,N/A,,Clear,300,2013-01-26 21:55:00
5:35 PM,38.3,25.5,60,30.21,10.0,NW,5.8,-,N/A,,Clear,310,2013-01-26 22:35:00
5:55 PM,38.3,25.7,61,30.22,10.0,NW,5.8,-,N/A,,Clear,320,2013-01-26 22:55:00
6:15 PM,37.8,25.5,61,30.23,10.0,NW,8.1,-,N/A,,Clear,310,2013-01-26 23:15:00
6:35 PM,37.6,25.5,62,30.22,10.0,NNW,4.6,-,N/A,,Clear,340,2013-01-26 23:35:00
6:55 PM,37.4,25.3,62,30.24,10.0,WNW,4.6,-,N/A,,Clear,300,2013-01-26 23:55:00
7:15 PM,36.9,25.3,63,30.25,10.0,NW,3.5,-,N/A,,Clear,320,2013-01-27 00:15:00
7:35 PM,35.6,24.6,64,30.25,10.0,NW,3.5,-,N/A,,Clear,320,2013-01-27 00:35:00
7:55 PM,34.7,24.6,67,30.27,10.0,NNW,4.6,-,N/A,,Clear,330,2013-01-27 00:55:00
8:15 PM,34.3,24.4,67,30.27,10.0,NNW,3.5,-,N/A,,Clear,330,2013-01-27 01:15:00
8:35 PM,33.6,23.5,67,30.29,10.0,NNW,3.5,-,N/A,,Clear,330,2013-01-27 01:35:00
8:55 PM,33.1,23.5,68,30.29,10.0,North,4.6,-,N/A,,Clear,350,2013-01-27 01:55:00
9:15 PM,32.2,22.8,68,30.29,10.0,North,4.6,-,N/A,,Clear,360,2013-01-27 02:15:00
9:35 PM,32.2,23.4,70,30.30,10.0,North,8.1,-,N/A,,Clear,10,2013-01-27 02:35:00
9:55 PM,32.0,23.2,70,30.31,10.0,NNE,6.9,-,N/A,,Clear,20,2013-01-27 02:55:00
10:15 PM,31.5,22.6,70,30.31,10.0,North,10.4,-,N/A,,Clear,360,2013-01-27 03:15:00
10:35 PM,32.0,23.0,69,30.32,10.0,NNE,6.9,16.1,N/A,,Clear,20,2013-01-27 03:35:00
10:55 PM,31.8,23.0,70,30.33,10.0,NNE,6.9,-,N/A,,Clear,20,2013-01-27 03:55:00
11:15 PM,31.6,22.5,69,30.33,10.0,NNE,5.8,-,N/A,,Clear,20,2013-01-27 04:15:00
11:35 PM,30.4,21.0,68,30.34,10.0,NE,3.5,-,N/A,,Clear,40,2013-01-27 04:35:00
11:55 PM,29.7,20.7,69,30.35,10.0,Calm,Calm,-,N/A,,Clear,0,2013-01-27 04:55:00